Location: Doverdale
(52.2833°N, 2.2000°W)
Time: 03:17:05
(UTC+00:00)

Cosmos 968 Rocket - Pass Details

Date: 29 October 2020
Orbit: 741 x 770 km, 74.0° (Epoch: 24 November)

Event Time Altitude Azimuth Distance (km) Brightness Sun altitude
Rises 18:15:01 0° 333° (NNW) 3,244 7.1 -14.3°
Reaches altitude 10° 18:17:25 10° 331° (NNW) 2,310 6.3 -14.7°
Maximum altitude 18:22:37 69° 249° (WSW) 816 3.8 -15.4°
Drops below altitude 10° 18:27:44 10° 167° (SSE) 2,274 5.8 -16.2°
Sets 18:30:05 0° 165° (SSE) 3,189 6.6 -16.6°
